{"data":{"norad_id":56782,"intl_designator":"2023-078R","name":"STARLINK-6352","alt_names":[],"object_type":"PAYLOAD","status":"ACTIVE","operator":null,"country":"US","launch_date":"2023-05-31","launch_site_code":"AFWTR","launch_vehicle":null,"mission":null,"orbit_class":"UNKNOWN","rcs_meters":null,"size_class":null,"mass_kg":null,"dimensions":null,"purposes":["comms"],"wikipedia_slug":null,"has_3d_model":false,"image_url":null,"decayed_at":null,"tle_current":{"epoch":"2026-05-25T05:15:34.864992Z","epoch_age_seconds":52805,"freshness":"FRESH","line1":"1 56782U 23078R   26145.21915353  .00000206  00000+0  25068-4 0  9997","line2":"2 56782  69.9987 131.6300 0003158 269.8527  90.2270 14.98331814164630","mean_motion":14.98331814,"eccentricity":0.0003158,"inclination_deg":69.9987,"raan_deg":131.63,"arg_perigee_deg":269.8527,"mean_anomaly_deg":90.227,"bstar":2.5068e-5,"rev_number":16463,"period_min":96.106882770895,"perigee_km":569.85541216128,"apogee_km":574.24515044815,"semimajor_km":6950.1872813047,"source":"CELESTRAK","updated_at":"2026-05-25T13:38:18.153745Z"}}}